Погода в Куларово

Россия / Тюменская область     57°57′23″N   68°47′24″E
темп.,
°C
ветер,
м/с
пор.,
м/с
влажн.,
%
обл.,
%
осадки,
мм/ч
давл.,
гПа
погр.,
м
6 марта, сб
сб623:00−5ююз389495 0.4 998229
02:00−7ююз2396100 0.0 99660
05:00−7зюз3696100 0.5 996208
08:00−7зсз51094100 0.4 997437
11:00−9з51093100 0.5 1000554
14:00−8зюз61187100 0.1 1002855
17:00−8з51184100 0.3 10031076
20:00−12зюз3109090 0.0 1004227
7 марта, вс
вс723:00−13зюз369763 0.1 1006138
02:00−13зюз3995100 0.1 1007261
05:00−16зюз389783 0.1 1009198
08:00−18зюз379886 0.0 1011172
11:00−13зюз249390 0.1 1012299
14:00−10ююз248898 0.0 1012488
17:00−10юв129199 0.0 101127
20:00−12вюв2495100 0.0 100994
8 марта, пн
пн823:00−11всв3696100 0.7 1006245
02:00−11св4895100 0.8 1002293
05:00−11с4895100 2.1 999385
08:00−11ссз51093100 0.7 999456
11:00−11сз599398 0.8 1002444
14:00−11зсз5990100 0.0 1005573
17:00−12з3791100 0.1 1007488
20:00−15юз2296100 0.0 100928
9 марта, вт
вт923:00−14ююз3696100 0.1 1010199
02:00−18ю239874 0.0 101062
05:00−16ююв369784 0.1 1010169
08:00−15ююв379799 0.1 1010239
11:00−9ююв4994100 0.1 1008443
14:00−8ююв61194100 1.3 1004737
17:00−6ю61194100 2.6 1001951
20:00−5ююз61390100 1.1 9991089
10 марта, ср
ср1023:00−8юз5158380 1.2 1000716
02:00−9юз6158652 0.0 1001877
05:00−12з5138732 0.0 1004492
08:00−17з499654 0.0 1007275
11:00−14з349076 0.0 1008487
14:00−12з3488100 0.1 1009612
17:00−13зсз2391100 0.1 1008411
20:00−19ссз129874 0.0 100920